Grand Junction, CO

10:03 AM MST on November 12, 2019 (GMT -0700)
Walker

Weather History for KGJT - September, 2019

Change the Weather History Date:

Sunday, September 22, 2019

  Actual Average Record
Temperature  
Mean Temperature 57 °F 63 °F  
Max Temperature 74 °F 77 °F 90 °F (1966)
Min Temperature 39 °F 49 °F 34 °F (1995)
Degree Days  
Heating Degree Days 8 3  
Month to date heating degree days 26 33  
Since 1 July heating degree days 26 36  
Cooling Degree Days 0 2  
Month to date cooling degree days 143 94  
Year to date cooling degree days 1264 1113  
Growing Degree Days 6 (Base 50)    
Moisture  
Dew Point 23 °F    
Average Humidity 33    
Maximum Humidity 50    
Minimum Humidity 15    
Precipitation  
Precipitation 0.00 in 0.05 in 1.87 in (1941)
Month to date precipitation 0.24 0.87  
Year to date precipitation 7.10 6.72  
Snow  
Snow 0.00 in 0.00 in T in (2005)
Month to date snowfall 0.0 0.0  
Since 1 July snowfall 0.0 0.0  
Since 1 September snowfall 0.0 0.0  
Snow Depth 0.00 in    
Sea Level Pressure  
Sea Level Pressure 30.03 in    
Wind  
Wind Speed 7 mph (East)    
Max Wind Speed 20 mph    
Max Gust Speed 24 mph    
Visibility 10 miles    
Events      
T = Trace of Precipitation, MM = Missing Value Source: NWS Daily Summary

Daily Weather History Graph

Daily Weather History Graph

Search for Another Location

Airport or City:

Astronomy

Sep. 22, 2019 Rise Set
Actual Time 7:01 AM MDT 7:11 PM MDT
Civil Twilight 6:34 AM MDT 7:38 PM MDT
Nautical Twilight 6:03 AM MDT 8:09 PM MDT
Astronomical Twilight 5:31 AM MDT 8:40 PM MDT
Moon No Moon Rise 3:07 PM MDT (9/22)
Length of Visible Light 13h 03m
Length of Day
12h 09m
Last Quarter, 43% of the Moon is Illuminated
Sep 22
Last Quarter
Sep 28
New
Oct 5
First Quarter
Oct 13
Full
Oct 21
Last Quarter

Hourly Weather History & Observations

Time (MDT) Temp. Windchill Dew Point Humidity Pressure Visibility Wind Dir Wind Speed Gust Speed Precip Events Conditions
12:53 AM 42.1 °F - 15.1 °F 34% 29.99 in 10.0 mi Calm Calm - N/A   Clear
1:53 AM 43.0 °F 41.3 °F 16.0 °F 34% 29.99 in 10.0 mi East 3.5 mph - N/A   Clear
2:53 AM 44.1 °F 41.5 °F 17.1 °F 34% 29.99 in 10.0 mi East 4.6 mph - N/A   Clear
3:53 AM 44.1 °F 42.5 °F 19.0 °F 37% 30.00 in 10.0 mi ENE 3.5 mph - N/A   Clear
4:53 AM 45.0 °F 42.6 °F 23.0 °F 42% 30.01 in 10.0 mi ENE 4.6 mph - N/A   Clear
5:53 AM 46.0 °F 41.4 °F 23.0 °F 40% 30.03 in 10.0 mi SE 9.2 mph - N/A   Clear
6:53 AM 39.9 °F - 23.0 °F 51% 30.08 in 10.0 mi Calm Calm - N/A   Clear
7:53 AM 46.9 °F - 25.0 °F 42% 30.09 in 10.0 mi ESE 11.5 mph - N/A   Clear
8:53 AM 55.0 °F - 26.1 °F 33% 30.10 in 10.0 mi East 10.4 mph - N/A   Clear
9:53 AM 57.0 °F - 26.1 °F 30% 30.12 in 10.0 mi South 8.1 mph - N/A   Clear
10:53 AM 61.0 °F - 26.1 °F 26% 30.11 in 10.0 mi South 4.6 mph - N/A   Clear
11:53 AM 64.9 °F - 27.0 °F 24% 30.09 in 10.0 mi WNW 6.9 mph - N/A   Clear
12:53 PM 68.0 °F - 28.0 °F 22% 30.08 in 10.0 mi West 10.4 mph 17.3 mph N/A   Clear
1:53 PM 69.1 °F - 28.0 °F 22% 30.05 in 10.0 mi Variable 3.5 mph - N/A   Clear
2:53 PM 71.1 °F - 26.1 °F 19% 30.02 in 10.0 mi WNW 11.5 mph 21.9 mph N/A   Clear
3:53 PM 73.0 °F - 26.1 °F 17% 30.00 in 10.0 mi NNW 12.7 mph 18.4 mph N/A   Clear
4:53 PM 73.9 °F - 23.0 °F 15% 29.98 in 10.0 mi North 8.1 mph - N/A   Clear
5:53 PM 73.0 °F - 23.0 °F 15% 29.97 in 10.0 mi WNW 4.6 mph - N/A   Clear
6:53 PM 70.0 °F - 26.1 °F 19% 30.00 in 10.0 mi WSW 3.5 mph - N/A   Clear
7:53 PM 57.0 °F - 19.0 °F 23% 30.03 in 10.0 mi East 3.5 mph - N/A   Clear
9:53 PM 54.0 °F - 19.0 °F 25% 30.03 in 10.0 mi East 4.6 mph - N/A   Clear
10:53 PM 57.0 °F - 23.0 °F 27% 30.02 in 10.0 mi ESE 8.1 mph - N/A   Clear
11:53 PM 55.9 °F - 23.0 °F 28% 30.00 in 10.0 mi ESE 8.1 mph - N/A   Clear